[[{"header":{"parameterUnit":"m.s-1","parameterCategory":2,"la1":30.2991,"la2":30.254,"lo1":-89.0895,"lo2":-89.0444,"dy":0.0017,"dx":0.0017,"nx":28,"ny":28,"refTime":"2024-03-14T03:00:00:Z","depth":"0","parameterNumber":2,"parameterNumberName":"U-component_of_CURRENTS"},"data":[0,0,0,0,0,0,0,0,0,0,0,0,0,0,0,0,0,0,0,0,0,0,0,0,0,0,0,0,0,0,0,0,0,0,0,0,0,0,0,0,0,0,0,0,0,0,0,0,0,0,0,0,0,0,0,0,0,0,0.1158,0.1159,0,0.119,0.1191,0.1191,0.121,0.121,0.1211,0.1211,0.121,0.121,0.121,0,0,0,0,0,0,0,0,0,0,0,0,0,0.1112,0.1113,0.1158,0.1159,0.1159,0.119,0.1191,0.1191,0.121,0.1211,0.1211,0.1211,0.121,0.121,0.121,0,0,0,0,0,0,0,0,0,0,0,0,0,0.1135,0.1113,0.1158,0.1174,0.1176,0.119,0.1191,0.1191,0.121,0.1211,0.1211,0.1211,0.121,0.121,0.121,0.12,0,0,0.1208,0.1208,0,0,0,0,0,0,0,0,0.1134,0.1137,0.1171,0.1173,0.1175,0.1198,0.1174,0.1193,0.121,0.1195,0.1211,0.1211,0.1204,0.1204,0.1207,0.12,0.1199,0.1208,0.1208,0.1208,0.1208,0,0,0,0,0,0,0,0.1132,0.1136,0.1169,0.1172,0.1174,0.1179,0.1183,0.1178,0.1195,0.1197,0.1199,0.1205,0.1205,0.1208,0.1207,0.1199,0.1208,0.1208,0.1208,0.1208,0.1215,0.1215,0,0,0,0,0,0,0.1132,0.1134,0.1168,0.117,0.1157,0.118,0.1184,0.1189,0.1196,0.1198,0.1204,0.1206,0.1208,0.1208,0.1207,0.1224,0.1208,0.1208,0.1207,0.1214,0.1215,0.1215,0,0,0,0,0,0,0.113,0.1134,0.1167,0.1154,0.1159,0.118,0.1186,0.1189,0.1198,0.1203,0.1204,0.121,0.1208,0.1208,0.1211,0.1223,0.1207,0.1207,0.1214,0.1214,0.1215,0.124,0,0,0,0,0,0,0.1129,0.1134,0.1135,0.1154,0.116,0.118,0.1186,0.119,0.1201,0.1203,0.1207,0.1208,0.1209,0.1211,0.121,0.1222,0.1207,0.1213,0.1214,0.1215,0.1238,0.1241,0.1243,0,0,0,0,0,0.1127,0.1129,0.1135,0.1139,0.1162,0.118,0.1184,0.1199,0.1201,0.1206,0.121,0.1208,0.1216,0.1211,0.121,0.1222,0.1213,0.1214,0.1215,0.1237,0.124,0.1243,0,0,0,0,0,0,0.111,0.1132,0.1139,0.1148,0.1165,0.1185,0.119,0.1199,0.1206,0.1206,0.1209,0.1209,0.1217,0.1214,0.1208,0.1227,0.1215,0.1216,0.1233,0.1236,0.1238,0.1246,0.1206,0,0,0,0,0,0.1107,0.1115,0.1137,0.1144,0.1153,0.117,0.1179,0.119,0.1201,0.1205,0.1208,0.1212,0.1219,0.1222,0.1223,0.1229,0.1274,0.1238,0.124,0.1243,0.1248,0.1302,0.131,0.1218,0.1218,0.1218,0,0,0.1101,0.1115,0.1119,0.1141,0.1154,0.1172,0.1176,0.1191,0.1206,0.1202,0.1216,0.1217,0.1221,0.1233,0.1236,0.1233,0.1305,0.1244,0.1246,0.125,0.1304,0.1313,0.1321,0.1219,0.1219,0.1219,0,0,0.11,0.1107,0.1118,0.1134,0.1157,0.117,0.1175,0.1195,0.1205,0.1217,0.1221,0.1232,0.1235,0.1249,0.1254,0.1269,0.1313,0.1269,0.1292,0.1343,0.1352,0.1359,0.1488,0.1507,0.1274,0.1274,0.1274,0,0.1093,0.1113,0.1123,0.1141,0.1158,0.117,0.119,0.12,0.1219,0.123,0.1224,0.1248,0.1246,0.1275,0.1282,0.1276,0.1338,0.128,0.1349,0.1357,0.1364,0.1493,0.1514,0.1275,0.1275,0.1275,0.1275,0,0.1107,0.1123,0.1131,0.116,0.1175,0.1192,0.1213,0.1225,0.1235,0.1248,0.1271,0.1274,0.1297,0.1295,0.1293,0.1343,0.1386,0.1344,0.1344,0.1375,0.151,0.1531,0.1277,0.1276,0.1276,0.1276,0,0,0.1093,0.1133,0.1137,0.1156,0.1188,0.1202,0.1227,0.1257,0.1282,0.1289,0.1333,0.133,0.1338,0.1346,0.1348,0.1384,0.1505,0.139,0.1392,0.1525,0.1691,0.1746,0.1775,0.1475,0.1477,0.1479,0.1787,0,0.1105,0.114,0.1159,0.1192,0.1213,0.1235,0.1258,0.1283,0.1307,0.1351,0.1361,0.1403,0.1357,0.1389,0.141,0.1487,0.1551,0.143,0.1634,0.1642,0.169,0.1795,0.177,0.2042,0.1808,0.1811,0.1814,0,0.1117,0.1141,0.1175,0.1217,0.1228,0.1245,0.1293,0.1319,0.1374,0.1402,0.1437,0.1464,0.1542,0.1486,0.1634,0.1564,0.163,0.1677,0.1689,0.1739,0.1732,0.196,0.2089,0.2021,0.1846,0.1843,0.1841,0,0.1108,0.1154,0.118,0.1194,0.124,0.1257,0.1282,0.1329,0.1374,0.1457,0.1523,0.1579,0.1668,0.1719,0.1821,0.1747,0.2002,0.1914,0.2033,0.2042,0.206,0.2064,0.2146,0.2013,0.2012,0.2011,0.201,0,0.1115,0.1135,0.1176,0.1189,0.122,0.1255,0.1302,0.1337,0.1425,0.1506,0.1555,0.1659,0.1725,0.1868,0.1904,0.2081,0.2084,0.2085,0.2123,0.2074,0.2076,0.2045,0.1988,0.2023,0.202,0.2018,0.2016,0,0.1094,0.1125,0.1154,0.1199,0.1214,0.1234,0.1317,0.1369,0.1453,0.1578,0.163,0.1787,0.1985,0.2076,0.2235,0.224,0.232,0.2411,0.2396,0.2423,0.2416,0.2362,0.2402,0.232,0.2605,0.2608,0.2611,0,0.1085,0.1103,0.1146,0.117,0.1188,0.1234,0.1282,0.1368,0.1449,0.1658,0.1741,0.1975,0.2121,0.2416,0.2507,0.2663,0.2486,0.2705,0.2515,0.2461,0.2429,0.2252,0.2163,0.2593,0.2596,0.2597,0.2599,0,0.1072,0.1087,0.1115,0.1177,0.1223,0.1264,0.1347,0.1407,0.1547,0.1671,0.1875,0.2012,0.2328,0.2499,0.2719,0.2773,0.2575,0.2747,0.2675,0.2431,0.226,0.2184,0.2395,0.2616,0.2614,0.2613,0.2612,0.2611,0.1074,0.1092,0.1157,0.1198,0.1244,0.1296,0.1323,0.1442,0.1566,0.1737,0.191,0.2102,0.2411,0.2718,0.2767,0.2853,0.2722,0.2765,0.2724,0.2564,0.24,0.2688,0.2929,0.2929,0.2929,0.293,0.293,0,0.111,0.1144,0.1186,0.1245,0.1273,0.1299,0.1377,0.141,0.1524,0.1722,0.1881,0.2231,0.2453,0.2655,0.2889,0.2839,0.2635,0.2755,0.2476,0.2398,0.2683,0.2591,0.2785,0.2785,0.2785,0.2785,0.2786,0.2786,0.1156,0.1204,0.1214,0.1261,0.1284,0.1316,0.1329,0.138,0.1493,0.1698,0.1895,0.208,0.2449,0.2763,0.2826,0.2768,0.2503,0.2447,0.235,0.2537,0.2531,0.2525,0.2423,0.2579,0.2579,0.1958,0.1954,0.1951]},{"header":{"parameterUnit":"m.s-1","parameterCategory":2,"la1":30.2991,"la2":30.254,"lo1":-89.0895,"lo2":-89.0444,"dy":0.0017,"dx":0.0017,"nx":28,"ny":28,"refTime":"2024-03-14T03:00:00:Z","depth":"0","parameterNumber":3,"parameterNumberName":"V-component_of_CURRENTS"},"data":[0,0,0,0,0,0,0,0,0,0,0,0,0,0,0,0,0,0,0,0,0,0,0,0,0,0,0,0,0,0,0,0,0,0,0,0,0,0,0,0,0,0,0,0,0,0,0,0,0,0,0,0,0,0,0,0,0,0,-0.0141,-0.0142,0,-0.0184,-0.0184,-0.0185,-0.0206,-0.0206,-0.0206,-0.0206,-0.0248,-0.0249,-0.025,0,0,0,0,0,0,0,0,0,0,0,0,0,-0.0091,-0.0091,-0.0141,-0.0142,-0.0142,-0.0184,-0.0184,-0.0185,-0.0206,-0.0206,-0.0206,-0.0206,-0.0248,-0.0249,-0.025,0,0,0,0,0,0,0,0,0,0,0,0,0,-0.012,-0.0092,-0.0141,-0.0158,-0.0161,-0.0184,-0.0184,-0.0185,-0.0206,-0.0206,-0.0206,-0.0206,-0.0247,-0.0249,-0.025,-0.0258,0,0,-0.0255,-0.0256,0,0,0,0,0,0,0,0,-0.0118,-0.0122,-0.0155,-0.0157,-0.016,-0.019,-0.0182,-0.0209,-0.0206,-0.0188,-0.0206,-0.0206,-0.0229,-0.0232,-0.0239,-0.0259,-0.0261,-0.0255,-0.0256,-0.0257,-0.0257,0,0,0,0,0,0,0,-0.0116,-0.012,-0.0157,-0.0156,-0.0159,-0.0168,-0.0173,-0.0187,-0.0207,-0.019,-0.0191,-0.0197,-0.023,-0.0237,-0.024,-0.0262,-0.0255,-0.0256,-0.0257,-0.0258,-0.03,-0.03,0,0,0,0,0,0,-0.0112,-0.0118,-0.0156,-0.0159,-0.014,-0.0169,-0.0174,-0.018,-0.0207,-0.0211,-0.0197,-0.0198,-0.0234,-0.0238,-0.0241,-0.0254,-0.0257,-0.0258,-0.0259,-0.03,-0.03,-0.03,0,0,0,0,0,0,-0.0111,-0.0115,-0.0154,-0.014,-0.0146,-0.017,-0.0177,-0.0181,-0.0189,-0.0213,-0.0217,-0.0201,-0.0235,-0.0239,-0.0258,-0.0255,-0.0259,-0.026,-0.03,-0.03,-0.03,-0.0277,0,0,0,0,0,0,-0.0109,-0.0114,-0.0117,-0.014,-0.0146,-0.0164,-0.0177,-0.0181,-0.0192,-0.0194,-0.0217,-0.0221,-0.0235,-0.0255,-0.0259,-0.0257,-0.0262,-0.0299,-0.03,-0.03,-0.0277,-0.0276,-0.0275,0,0,0,0,0,-0.0107,-0.0107,-0.0116,-0.0121,-0.0149,-0.0164,-0.0168,-0.0185,-0.0192,-0.0193,-0.0214,-0.0221,-0.026,-0.0257,-0.0261,-0.026,-0.0299,-0.03,-0.03,-0.0278,-0.0276,-0.0275,0,0,0,0,0,0,-0.0085,-0.011,-0.0121,-0.0128,-0.0144,-0.0168,-0.0171,-0.0184,-0.0201,-0.0202,-0.0225,-0.023,-0.0246,-0.0257,-0.0253,-0.0274,-0.028,-0.0281,-0.0262,-0.0261,-0.0259,-0.0252,-0.0263,0,0,0,0,0,-0.0082,-0.009,-0.0114,-0.012,-0.0126,-0.0148,-0.0157,-0.0168,-0.0187,-0.0194,-0.0213,-0.0232,-0.0251,-0.0259,-0.0276,-0.0287,-0.0279,-0.0289,-0.0288,-0.0287,-0.0285,-0.0292,-0.0291,-0.0301,-0.0301,-0.0301,0,0,-0.0076,-0.009,-0.0095,-0.0116,-0.0128,-0.0132,-0.0153,-0.0162,-0.0167,-0.0196,-0.0207,-0.023,-0.0254,-0.0268,-0.0275,-0.0277,-0.0271,-0.0288,-0.0286,-0.0285,-0.0292,-0.0291,-0.029,-0.0302,-0.0302,-0.0302,0,0,-0.0061,-0.0079,-0.0076,-0.0088,-0.0105,-0.012,-0.0121,-0.0144,-0.0156,-0.0172,-0.0195,-0.0217,-0.0241,-0.026,-0.0273,-0.0276,-0.0268,-0.0281,-0.0267,-0.0274,-0.0273,-0.0272,-0.022,-0.0215,-0.0278,-0.0278,-0.0278,0,-0.0051,-0.0054,-0.0077,-0.0076,-0.0083,-0.0111,-0.0108,-0.0124,-0.0151,-0.0161,-0.017,-0.0215,-0.0238,-0.0258,-0.0262,-0.0273,-0.0257,-0.0269,-0.0271,-0.0271,-0.027,-0.0218,-0.0213,-0.0277,-0.0277,-0.0277,-0.0277,0,-0.0032,-0.0036,-0.0034,-0.0044,-0.0054,-0.0056,-0.0081,-0.0093,-0.0112,-0.013,-0.0156,-0.019,-0.0214,-0.0228,-0.0248,-0.0258,-0.0238,-0.0269,-0.0271,-0.0267,-0.0213,-0.0207,-0.0275,-0.0276,-0.0276,-0.0276,0,0,-0.0006,-0.0019,-0.0018,-0.0018,-0.0038,-0.0043,-0.0054,-0.0073,-0.0068,-0.0109,-0.0101,-0.0162,-0.018,-0.0195,-0.0223,-0.0238,-0.0213,-0.0251,-0.0252,-0.0192,-0.0181,-0.0163,-0.0155,-0.0248,-0.0248,-0.0248,-0.0129,0,0.0016,0.0026,0.0012,0.0019,0.002,-0.0009,-0.0013,-0.0035,-0.0048,-0.0044,-0.0094,-0.0087,-0.0166,-0.0153,-0.0196,-0.0193,-0.0205,-0.024,-0.0201,-0.0198,-0.0178,-0.0151,-0.0182,-0.0081,-0.0124,-0.0123,-0.0123,0,0.0041,0.0043,0.0054,0.0047,0.0046,0.0046,0.0039,0.0036,0.0024,0.0026,0.0001,-0.0016,-0.003,-0.0092,-0.012,-0.0135,-0.0165,-0.0179,-0.0176,-0.0167,-0.0172,-0.0101,-0.0069,-0.0253,-0.0114,-0.0115,-0.0116,0,0.0069,0.0072,0.0081,0.0078,0.0068,0.0067,0.0065,0.0053,0.0099,0.0097,0.017,0.0086,0.0148,0.0044,0.0011,-0.0047,0.0007,-0.0074,-0.0089,-0.0084,-0.0108,-0.0107,-0.0249,-0.0115,-0.0115,-0.0115,-0.0116,0,0.0095,0.0103,0.0096,0.0101,0.0124,0.0102,0.0145,0.0136,0.0195,0.0308,0.0225,0.0337,0.0187,0.0202,0.0079,0.0051,0.0062,-0.0069,-0.0062,-0.0096,-0.0095,-0.0255,-0.0354,-0.0111,-0.0112,-0.0113,-0.0113,0,0.0127,0.0117,0.0135,0.0133,0.014,0.016,0.0239,0.0315,0.0342,0.0508,0.0546,0.0583,0.0603,0.0459,0.0372,0.022,0.0048,0.0113,0.0116,0.0118,-0.0126,-0.022,-0.0286,-0.0366,0.0096,0.0097,0.0098,0,0.0149,0.0165,0.0175,0.0227,0.0235,0.0278,0.0357,0.0386,0.0516,0.0692,0.0828,0.0887,0.0964,0.0837,0.0558,0.0354,0.0158,0.0195,0.0033,-0.0129,-0.0229,-0.0289,-0.0357,0.0039,0.0039,0.004,0.004,0,0.0235,0.0233,0.0266,0.0369,0.0451,0.0533,0.0653,0.0764,0.0877,0.1019,0.1251,0.1317,0.1193,0.0982,0.0681,0.0498,0.0049,0.0194,0.0002,-0.0303,-0.0353,-0.0428,-0.0007,0.0042,0.0042,0.0042,0.0042,0.0042,0.0354,0.0406,0.0494,0.0575,0.0669,0.0831,0.093,0.1091,0.1291,0.1519,0.156,0.1659,0.1312,0.0882,0.0626,0.0089,0.0088,-0.0116,-0.0208,-0.0245,-0.0372,0.0086,0.0141,0.0142,0.0142,0.0142,0.0143,0,0.0581,0.0645,0.0732,0.0868,0.0989,0.0986,0.1189,0.1303,0.1536,0.1707,0.1849,0.1705,0.1271,0.079,0.0091,-0.0271,-0.043,-0.0467,-0.0611,-0.066,-0.0275,-0.0334,-0.0352,-0.0352,-0.0352,-0.0352,-0.0352,-0.0351,0.0756,0.0898,0.0906,0.115,0.1225,0.1421,0.1519,0.1653,0.177,0.193,0.1946,0.1941,0.1552,0.0356,-0.0492,-0.0693,-0.0954,-0.0976,-0.1086,-0.0902,-0.0879,-0.0857,-0.094,-0.1085,-0.1086,-0.1462,-0.1466,-0.1469]}],[{"header":{"parameterUnit":"m.s-1","parameterCategory":2,"la1":30.2991,"la2":30.254,"lo1":-89.0895,"lo2":-89.0444,"dy":0.0017,"dx":0.0017,"nx":28,"ny":28,"refTime":"2024-03-14T03:00:00:Z","depth":"2","parameterNumber":2,"parameterNumberName":"U-component_of_CURRENTS"},"data":[0,0,0,0,0,0,0,0,0,0,0,0,0,0,0,0,0,0,0,0,0,0,0,0,0,0,0,0,0,0,0,0,0,0,0,0,0,0,0,0,0,0,0,0,0,0,0,0,0,0,0,0,0,0,0,0,0,0,0.129,0.129,0,0.1323,0.1323,0.1323,0.1344,0.1344,0.1345,0.1345,0.1342,0.1342,0.1342,0,0,0,0,0,0,0,0,0,0,0,0,0,0.1241,0.1242,0.129,0.129,0.1291,0.1323,0.1323,0.1323,0.1344,0.1344,0.1345,0.1345,0.1343,0.1342,0.1342,0,0,0,0,0,0,0,0,0,0,0,0,0,0.1266,0.1242,0.129,0.1306,0.1308,0.1323,0.1323,0.1323,0.1344,0.1344,0.1345,0.1345,0.1343,0.1342,0.1342,0.1331,0,0,0.134,0.134,0,0,0,0,0,0,0,0,0.1264,0.1267,0.1303,0.1305,0.1307,0.1331,0.1305,0.1325,0.1344,0.1329,0.1345,0.1345,0.1336,0.1336,0.134,0.1331,0.1331,0.134,0.134,0.134,0.134,0,0,0,0,0,0,0,0.1262,0.1266,0.1301,0.1304,0.1306,0.1311,0.1315,0.1309,0.1328,0.133,0.1332,0.1338,0.1337,0.134,0.134,0.1331,0.134,0.134,0.134,0.134,0.1346,0.1346,0,0,0,0,0,0,0.1261,0.1264,0.13,0.1302,0.1288,0.1312,0.1316,0.1322,0.1329,0.1331,0.1338,0.1339,0.1341,0.134,0.134,0.1357,0.134,0.134,0.1339,0.1345,0.1346,0.1346,0,0,0,0,0,0,0.126,0.1264,0.1299,0.1285,0.129,0.1312,0.1319,0.1322,0.133,0.1335,0.1337,0.1343,0.1341,0.1341,0.1344,0.1356,0.1339,0.1339,0.1345,0.1345,0.1346,0.1373,0,0,0,0,0,0,0.1258,0.1263,0.1265,0.1285,0.1291,0.1313,0.1319,0.1323,0.1334,0.1336,0.134,0.134,0.1341,0.1344,0.1343,0.1355,0.1339,0.1344,0.1345,0.1346,0.1372,0.1374,0.1377,0,0,0,0,0,0.1257,0.1259,0.1265,0.127,0.1294,0.1313,0.1317,0.1332,0.1334,0.134,0.1344,0.134,0.1349,0.1344,0.1343,0.1355,0.1344,0.1345,0.1346,0.137,0.1374,0.1377,0,0,0,0,0,0,0.1239,0.1262,0.1269,0.1279,0.1297,0.1318,0.1323,0.1332,0.134,0.134,0.1342,0.1342,0.135,0.1346,0.1341,0.1359,0.1347,0.1348,0.1366,0.1369,0.1372,0.1379,0.1338,0,0,0,0,0,0.1235,0.1244,0.1268,0.1275,0.1284,0.1302,0.1311,0.1323,0.1334,0.1338,0.1342,0.1345,0.1352,0.1356,0.1357,0.1363,0.1386,0.1371,0.1373,0.1376,0.1381,0.1424,0.1432,0.135,0.135,0.135,0,0,0.1229,0.1244,0.1248,0.1272,0.1286,0.1304,0.1308,0.1324,0.134,0.1335,0.135,0.1351,0.1354,0.1367,0.1371,0.1366,0.1415,0.1377,0.1379,0.1383,0.1426,0.1435,0.1442,0.135,0.135,0.135,0,0,0.1229,0.1237,0.1247,0.1264,0.1289,0.1302,0.1307,0.1329,0.1339,0.1352,0.1356,0.1368,0.137,0.1385,0.139,0.1406,0.1426,0.1404,0.1427,0.1469,0.1477,0.1484,0.1543,0.1555,0.1409,0.1409,0.1409,0,0.122,0.1242,0.1253,0.1272,0.1288,0.1302,0.1322,0.1334,0.1354,0.1365,0.1359,0.1384,0.1383,0.1412,0.142,0.1414,0.1446,0.1415,0.1475,0.1481,0.1488,0.1547,0.156,0.141,0.141,0.141,0.141,0,0.1235,0.1252,0.126,0.129,0.1306,0.1324,0.1347,0.1361,0.137,0.1385,0.1409,0.1414,0.1437,0.1435,0.1431,0.1476,0.1489,0.1472,0.1469,0.1498,0.1559,0.1572,0.1412,0.1412,0.1411,0.1411,0,0,0.1221,0.1262,0.1266,0.1285,0.1319,0.1335,0.1361,0.1393,0.1419,0.1427,0.1467,0.1471,0.148,0.1487,0.149,0.1518,0.1593,0.1516,0.1517,0.158,0.1709,0.1702,0.1716,0.1589,0.1591,0.1592,0.174,0,0.1232,0.1269,0.1288,0.1322,0.1344,0.1367,0.1392,0.142,0.1446,0.1485,0.1495,0.1528,0.15,0.1521,0.1545,0.1585,0.1625,0.1556,0.1666,0.167,0.1664,0.1729,0.1586,0.1703,0.1752,0.1754,0.1756,0,0.1245,0.127,0.1304,0.1347,0.1359,0.1378,0.143,0.1458,0.151,0.1533,0.1568,0.1585,0.1637,0.1603,0.1693,0.1654,0.1685,0.1706,0.1712,0.1704,0.1687,0.1677,0.1725,0.1778,0.1776,0.1774,0.1773,0,0.1235,0.1282,0.1309,0.1323,0.1371,0.1389,0.1417,0.1467,0.1508,0.1574,0.1621,0.1667,0.1718,0.1752,0.1801,0.1758,0.1906,0.1855,0.1881,0.1882,0.1779,0.1767,0.1919,0.1919,0.1918,0.1918,0.1918,0,0.1243,0.1262,0.1304,0.1317,0.1352,0.1387,0.1436,0.1471,0.1547,0.1614,0.1648,0.1722,0.1757,0.184,0.1854,0.1931,0.1959,0.1909,0.1923,0.1786,0.1774,0.184,0.1829,0.1923,0.1922,0.1921,0.192,0,0.1224,0.1253,0.1283,0.133,0.1346,0.1368,0.1445,0.1493,0.1562,0.1661,0.1691,0.1796,0.1904,0.1949,0.2036,0.2018,0.2074,0.2088,0.1937,0.193,0.2007,0.1996,0.2133,0.2134,0.2135,0.2136,0.2136,0,0.1219,0.1231,0.128,0.1306,0.1325,0.137,0.1412,0.1486,0.1551,0.1711,0.1766,0.19,0.1978,0.2115,0.212,0.217,0.2158,0.2052,0.1927,0.2031,0.2032,0.2018,0.2006,0.1814,0.1812,0.1811,0.1809,0,0.1207,0.1219,0.1246,0.129,0.133,0.1381,0.1449,0.1497,0.1609,0.1696,0.1832,0.1906,0.2047,0.2036,0.2103,0.2095,0.2026,0.202,0.2192,0.1775,0.174,0.1737,0.1734,0.1794,0.1796,0.1797,0.1798,0.1798,0.1195,0.1205,0.1239,0.1277,0.1328,0.1378,0.1398,0.1475,0.1555,0.1652,0.1788,0.1845,0.1908,0.1927,0.1912,0.1901,0.2011,0.1902,0.1903,0.1907,0.1836,0.1804,0.1859,0.1861,0.1862,0.1864,0.1865,0,0.1177,0.1195,0.1232,0.1273,0.1306,0.1344,0.1416,0.141,0.1457,0.158,0.1651,0.1579,0.1611,0.1677,0.165,0.167,0.1601,0.1596,0.1487,0.1506,0.1522,0.1425,0.1342,0.134,0.1338,0.1336,0,0,0.1168,0.1181,0.1193,0.123,0.1267,0.1273,0.1292,0.1278,0.1331,0.1343,0.1381,0.1508,0.1635,0.1449,0.1457,0.14,0.1426,0.1348,0.1778,0.1669,0.1681,0.1725,0.1603,0,0,0,0,0]},{"header":{"parameterUnit":"m.s-1","parameterCategory":2,"la1":30.2991,"la2":30.254,"lo1":-89.0895,"lo2":-89.0444,"dy":0.0017,"dx":0.0017,"nx":28,"ny":28,"refTime":"2024-03-14T03:00:00:Z","depth":"2","parameterNumber":3,"parameterNumberName":"V-component_of_CURRENTS"},"data":[0,0,0,0,0,0,0,0,0,0,0,0,0,0,0,0,0,0,0,0,0,0,0,0,0,0,0,0,0,0,0,0,0,0,0,0,0,0,0,0,0,0,0,0,0,0,0,0,0,0,0,0,0,0,0,0,0,0,-0.026,-0.0261,0,-0.0303,-0.0303,-0.0304,-0.0331,-0.0331,-0.0331,-0.0331,-0.0377,-0.0378,-0.0379,0,0,0,0,0,0,0,0,0,0,0,0,0,-0.0216,-0.0216,-0.026,-0.0261,-0.0261,-0.0303,-0.0303,-0.0304,-0.033,-0.0331,-0.0331,-0.0331,-0.0376,-0.0378,-0.0379,0,0,0,0,0,0,0,0,0,0,0,0,0,-0.0244,-0.0216,-0.026,-0.028,-0.0282,-0.0303,-0.0303,-0.0304,-0.033,-0.0331,-0.0331,-0.0331,-0.0376,-0.0377,-0.0379,-0.0383,0,0,-0.0384,-0.0384,0,0,0,0,0,0,0,0,-0.0242,-0.0246,-0.0276,-0.0279,-0.0281,-0.0312,-0.0304,-0.0331,-0.033,-0.0312,-0.0331,-0.0331,-0.0355,-0.0359,-0.0366,-0.0386,-0.0387,-0.0384,-0.0385,-0.0386,-0.0386,0,0,0,0,0,0,0,-0.024,-0.0244,-0.0277,-0.0277,-0.028,-0.0291,-0.0295,-0.0309,-0.0331,-0.0313,-0.0316,-0.0321,-0.0357,-0.0364,-0.0367,-0.0388,-0.0384,-0.0385,-0.0386,-0.0387,-0.0427,-0.0427,0,0,0,0,0,0,-0.0235,-0.0242,-0.0276,-0.0278,-0.0262,-0.0292,-0.0296,-0.0301,-0.0331,-0.0336,-0.032,-0.0322,-0.0361,-0.0365,-0.0369,-0.0381,-0.0386,-0.0387,-0.0388,-0.0427,-0.0427,-0.0427,0,0,0,0,0,0,-0.0234,-0.0237,-0.0274,-0.0261,-0.0267,-0.0292,-0.0298,-0.0302,-0.031,-0.0336,-0.0341,-0.0324,-0.0361,-0.0366,-0.0385,-0.0383,-0.0388,-0.0389,-0.0427,-0.0427,-0.0427,-0.0402,0,0,0,0,0,0,-0.0232,-0.0237,-0.0238,-0.0261,-0.0267,-0.0283,-0.0298,-0.0303,-0.0313,-0.0315,-0.0341,-0.0346,-0.0362,-0.0383,-0.0387,-0.0385,-0.039,-0.0427,-0.0427,-0.0427,-0.0403,-0.0401,-0.04,0,0,0,0,0,-0.023,-0.0228,-0.0237,-0.0241,-0.0268,-0.0283,-0.0287,-0.0306,-0.0313,-0.0315,-0.0336,-0.0345,-0.0387,-0.0384,-0.0389,-0.0387,-0.0427,-0.0427,-0.0427,-0.0403,-0.0402,-0.04,0,0,0,0,0,0,-0.0208,-0.0232,-0.0242,-0.0247,-0.0263,-0.0288,-0.029,-0.0303,-0.0321,-0.0323,-0.0348,-0.0354,-0.037,-0.0383,-0.0379,-0.04,-0.0408,-0.0409,-0.0388,-0.0387,-0.0385,-0.0375,-0.0392,0,0,0,0,0,-0.0204,-0.021,-0.0233,-0.0237,-0.0243,-0.0266,-0.0274,-0.0287,-0.0306,-0.0314,-0.0334,-0.0355,-0.0375,-0.0383,-0.0402,-0.0412,-0.0434,-0.0414,-0.0413,-0.0412,-0.0407,-0.0436,-0.0437,-0.0428,-0.0428,-0.0428,0,0,-0.0198,-0.0211,-0.0215,-0.0233,-0.0246,-0.0251,-0.0271,-0.028,-0.0286,-0.0316,-0.0328,-0.0352,-0.0377,-0.0392,-0.04,-0.0402,-0.0429,-0.0412,-0.0411,-0.0407,-0.0436,-0.0437,-0.0438,-0.0429,-0.0428,-0.0428,0,0,-0.0182,-0.0197,-0.0194,-0.0205,-0.0223,-0.0237,-0.0238,-0.0262,-0.0273,-0.0289,-0.0314,-0.0337,-0.0362,-0.0383,-0.0396,-0.0398,-0.0422,-0.0402,-0.0385,-0.0414,-0.0415,-0.0416,-0.0456,-0.0461,-0.04,-0.04,-0.04,0,-0.0172,-0.0174,-0.0196,-0.0194,-0.02,-0.0229,-0.0225,-0.0241,-0.0268,-0.0278,-0.0289,-0.0336,-0.0358,-0.0379,-0.0382,-0.0394,-0.0418,-0.0388,-0.0412,-0.0413,-0.0414,-0.0456,-0.0461,-0.0399,-0.0399,-0.0399,-0.0399,0,-0.0154,-0.0156,-0.0154,-0.0164,-0.0172,-0.0174,-0.0198,-0.0209,-0.0228,-0.0247,-0.0273,-0.0309,-0.0336,-0.0348,-0.0366,-0.0386,-0.0404,-0.0408,-0.0413,-0.0414,-0.0458,-0.0464,-0.0397,-0.0397,-0.0398,-0.0398,0,0,-0.013,-0.014,-0.0139,-0.0137,-0.0156,-0.016,-0.0169,-0.0187,-0.019,-0.0225,-0.0233,-0.0277,-0.0299,-0.0316,-0.0344,-0.0369,-0.0407,-0.0389,-0.0391,-0.0426,-0.0481,-0.045,-0.0454,-0.0415,-0.0415,-0.0416,-0.0512,0,-0.0109,-0.0098,-0.0111,-0.0102,-0.0098,-0.0124,-0.0129,-0.015,-0.017,-0.0186,-0.023,-0.0249,-0.0286,-0.0296,-0.033,-0.0386,-0.042,-0.0381,-0.0479,-0.0482,-0.0451,-0.0459,-0.0415,-0.0492,-0.0518,-0.052,-0.052,0,-0.0087,-0.0083,-0.0068,-0.0071,-0.0071,-0.0071,-0.0083,-0.009,-0.0122,-0.0137,-0.0169,-0.0203,-0.0253,-0.0274,-0.038,-0.0353,-0.0414,-0.0459,-0.0464,-0.0445,-0.0461,-0.0494,-0.0503,-0.0531,-0.053,-0.0529,-0.0529,0,-0.0059,-0.0053,-0.004,-0.0041,-0.0049,-0.0047,-0.0053,-0.0076,-0.0078,-0.0103,-0.011,-0.0174,-0.0209,-0.0287,-0.0385,-0.0385,-0.0495,-0.0509,-0.0544,-0.0543,-0.0528,-0.0524,-0.0578,-0.0578,-0.0578,-0.0578,-0.0577,0,-0.0033,-0.0022,-0.0025,-0.0017,-0.0,-0.0017,-0.0,-0.0017,-0.003,-0.0024,-0.0082,-0.0096,-0.0213,-0.0289,-0.0376,-0.0477,-0.0495,-0.0542,-0.0561,-0.0519,-0.0513,-0.056,-0.0556,-0.0581,-0.058,-0.058,-0.0579,0,-0.0005,-0.0007,0.0009,0.001,0.0014,0.0026,0.0036,0.0042,0.0025,0.0032,0.0026,-0.0055,-0.0145,-0.0261,-0.0393,-0.0465,-0.0559,-0.059,-0.0536,-0.0545,-0.0597,-0.0591,-0.0646,-0.0646,-0.0646,-0.0645,-0.0645,0,0.0007,0.0018,0.0034,0.0045,0.0047,0.0067,0.0076,0.0071,0.0083,0.0063,0.0063,-0.0019,-0.0046,-0.0233,-0.0373,-0.0513,-0.0551,-0.0573,-0.0555,-0.0588,-0.0602,-0.0597,-0.0592,-0.0545,-0.0544,-0.0543,-0.0543,0,0.0015,0.0021,0.003,0.0057,0.0071,0.0112,0.013,0.0151,0.015,0.0173,0.018,0.0165,-0.0003,-0.0122,-0.0319,-0.0415,-0.0542,-0.0558,-0.0617,-0.0515,-0.0495,-0.0507,-0.0506,-0.0535,-0.0536,-0.0536,-0.0537,-0.0537,0.0001,0.001,0.001,0.0046,0.008,0.0133,0.018,0.0224,0.0273,0.0329,0.0289,0.0311,0.0127,-0.0075,-0.0266,-0.0468,-0.0477,-0.0538,-0.054,-0.0544,-0.0495,-0.0472,-0.0502,-0.0502,-0.0503,-0.0503,-0.0503,0,-0.0054,-0.0042,-0.0008,0.0024,0.0083,0.0114,0.0193,0.027,0.0367,0.0437,0.0493,0.0378,0.0235,0.0022,-0.0255,-0.043,-0.0456,-0.0489,-0.0483,-0.0489,-0.0494,-0.0443,-0.0437,-0.0437,-0.0438,-0.0438,0,0,-0.0109,-0.0101,-0.0066,0.0004,0.006,0.0163,0.0232,0.0368,0.0467,0.0575,0.062,0.0612,0.0344,0.0161,-0.01,-0.0262,-0.0332,-0.0294,-0.0325,-0.0292,-0.0295,-0.0499,-0.0423,0,0,0,0,0]}],[{"header":{"parameterUnit":"m.s-1","parameterCategory":2,"la1":30.2991,"la2":30.254,"lo1":-89.0895,"lo2":-89.0444,"dy":0.0017,"dx":0.0017,"nx":28,"ny":28,"refTime":"2024-03-14T03:00:00:Z","depth":"4","parameterNumber":2,"parameterNumberName":"U-component_of_CURRENTS"},"data":[0,0,0,0,0,0,0,0,0,0,0,0,0,0,0,0,0,0,0,0,0,0,0,0,0,0,0,0,0,0,0,0,0,0,0,0,0,0,0,0,0,0,0,0,0,0,0,0,0,0,0,0,0,0,0,0,0,0,0.0772,0.0773,0,0.0813,0.0814,0.0814,0.0843,0.0844,0.0844,0.0845,0.0879,0.088,0.088,0,0,0,0,0,0,0,0,0,0,0,0,0,0.0714,0.0714,0.0772,0.0773,0.0774,0.0813,0.0814,0.0814,0.0843,0.0844,0.0844,0.0845,0.0879,0.088,0.088,0,0,0,0,0,0,0,0,0,0,0,0,0,0.0743,0.0715,0.0772,0.0795,0.0797,0.0813,0.0814,0.0814,0.0843,0.0844,0.0844,0.0845,0.0879,0.088,0.0881,0.0872,0,0,0.0883,0.0883,0,0,0,0,0,0,0,0,0.0741,0.0745,0.0791,0.0793,0.0796,0.0826,0.0806,0.0834,0.0843,0.0823,0.0845,0.0845,0.0862,0.0864,0.0867,0.0873,0.0875,0.0883,0.0883,0.0884,0.0884,0,0,0,0,0,0,0,0.0739,0.0743,0.0786,0.0791,0.0795,0.0801,0.0806,0.0811,0.0836,0.0825,0.0828,0.0836,0.0863,0.0866,0.0868,0.0875,0.0883,0.0884,0.0884,0.0884,0.0939,0.094,0,0,0,0,0,0,0.0739,0.0741,0.0785,0.0788,0.0773,0.0802,0.0807,0.0814,0.0837,0.0841,0.0835,0.0837,0.0865,0.0867,0.087,0.0924,0.0884,0.0884,0.0885,0.0938,0.094,0.0941,0,0,0,0,0,0,0.0737,0.0742,0.0783,0.0767,0.0773,0.0802,0.081,0.0814,0.0838,0.0845,0.0849,0.0857,0.0865,0.0869,0.0894,0.0923,0.0885,0.0885,0.0937,0.0939,0.094,0.0991,0,0,0,0,0,0,0.0735,0.0741,0.0752,0.0767,0.0774,0.0804,0.0809,0.0815,0.0842,0.0846,0.0865,0.0868,0.0866,0.0893,0.0895,0.0923,0.0886,0.0936,0.0938,0.094,0.0988,0.0994,0.0999,0,0,0,0,0,0.0733,0.0742,0.0752,0.0758,0.0786,0.0805,0.0809,0.083,0.0843,0.0854,0.0872,0.0868,0.0907,0.0895,0.0897,0.0925,0.0935,0.0937,0.094,0.0985,0.0993,0.0999,0,0,0,0,0,0,0.072,0.0746,0.0758,0.0774,0.0795,0.0811,0.0826,0.0841,0.0863,0.0872,0.0878,0.0882,0.0915,0.0911,0.0898,0.0947,0.0921,0.0924,0.0956,0.0962,0.0968,0.0969,0.0887,0,0,0,0,0,0.0723,0.0739,0.0762,0.0777,0.0789,0.0812,0.0826,0.0841,0.086,0.0871,0.0888,0.0905,0.0922,0.0936,0.0944,0.097,0.0969,0.099,0.0996,0.1,0.1003,0.1028,0.1036,0.0948,0.0948,0.0948,0,0,0.0721,0.0739,0.0749,0.0776,0.0794,0.0814,0.0822,0.0848,0.0871,0.087,0.0911,0.0924,0.0932,0.0963,0.0978,0.0967,0.1026,0.1003,0.1007,0.1007,0.1031,0.104,0.1047,0.095,0.0949,0.0949,0,0,0.0725,0.0745,0.0761,0.078,0.0813,0.0826,0.0839,0.0869,0.0891,0.0925,0.0935,0.0966,0.099,0.1006,0.1015,0.1055,0.1052,0.1063,0.1097,0.1122,0.113,0.1136,0.1149,0.1156,0.1069,0.107,0.107,0,0.0726,0.0748,0.0768,0.079,0.0809,0.0835,0.0857,0.088,0.0917,0.0939,0.0944,0.1002,0.101,0.1053,0.1071,0.1069,0.1079,0.1072,0.113,0.1136,0.1142,0.1154,0.1161,0.1072,0.1072,0.1072,0.1071,0,0.0738,0.0763,0.0775,0.0811,0.0833,0.0855,0.0889,0.0919,0.0951,0.0977,0.1032,0.1051,0.1086,0.1099,0.1099,0.1151,0.1143,0.1132,0.1113,0.1154,0.1163,0.117,0.1076,0.1075,0.1074,0.1074,0,0,0.0723,0.0774,0.0781,0.0803,0.0848,0.0865,0.0908,0.0952,0.0989,0.1033,0.1083,0.1124,0.1145,0.1156,0.1169,0.1196,0.1247,0.1189,0.1189,0.1202,0.1302,0.1248,0.125,0.1253,0.1254,0.1255,0.1293,0,0.0731,0.0767,0.0795,0.0836,0.0857,0.0896,0.0933,0.0978,0.1022,0.1075,0.1115,0.1165,0.1164,0.1195,0.1222,0.1237,0.1267,0.1238,0.126,0.126,0.1207,0.1256,0.126,0.1298,0.13,0.1301,0.1301,0,0.0734,0.0761,0.0797,0.0852,0.0866,0.0897,0.0963,0.1002,0.1075,0.1114,0.1173,0.1206,0.1261,0.1253,0.1306,0.129,0.1304,0.1314,0.1315,0.125,0.1218,0.1248,0.1313,0.1312,0.1312,0.1311,0.131,0,0.0707,0.0764,0.0793,0.081,0.0873,0.0906,0.0946,0.1017,0.1056,0.1148,0.1195,0.1253,0.1297,0.1323,0.1353,0.1336,0.1407,0.1376,0.1342,0.1338,0.1352,0.1344,0.1421,0.1421,0.1421,0.1421,0.1421,0,0.0696,0.0724,0.0786,0.0801,0.0846,0.0898,0.0957,0.1009,0.1085,0.1138,0.1218,0.1269,0.1321,0.1368,0.1375,0.1384,0.1426,0.1357,0.135,0.1372,0.1366,0.1356,0.1348,0.1422,0.1422,0.1422,0.1422,0,0.0659,0.0702,0.0738,0.0806,0.0833,0.0866,0.0952,0.099,0.108,0.1153,0.1189,0.1287,0.1351,0.14,0.1445,0.141,0.1423,0.1421,0.1452,0.1445,0.1327,0.1322,0.1364,0.1362,0.1361,0.136,0.1359,0,0.0641,0.0652,0.0725,0.0752,0.0788,0.0848,0.0886,0.0975,0.1014,0.1156,0.1179,0.1288,0.1349,0.137,0.1418,0.1439,0.143,0.142,0.1361,0.1336,0.1325,0.1321,0.1317,0.1357,0.1357,0.1356,0.1356,0,0.0595,0.0624,0.0653,0.0705,0.0752,0.0798,0.0862,0.0882,0.099,0.1083,0.1156,0.1213,0.1291,0.1326,0.1372,0.1379,0.1409,0.1406,0.1408,0.1352,0.1328,0.1317,0.1315,0.1352,0.1352,0.1353,0.1353,0,0.0558,0.0568,0.0607,0.0651,0.0707,0.0738,0.0779,0.0835,0.0886,0.1035,0.1053,0.1185,0.1271,0.1298,0.1332,0.1347,0.1316,0.1259,0.1268,0.1273,0.1229,0.1184,0.1168,0,0,0,0,0,0.0513,0.0522,0.0552,0.06,0.0651,0.0685,0.0758,0.08,0.0904,0.0929,0.0989,0.1065,0.1142,0.1199,0.1196,0.1286,0.1313,0.1277,0.125,0.1328,0.1333,0.1291,0,0,0,0,0,0,0.0488,0.051,0.0526,0.0544,0.057,0.0619,0.0664,0.0732,0.0748,0.0863,0.0907,0.1001,0.1083,0.1135,0.1176,0.1195,0.1157,0.135,0.1348,0.1325,0.1329,0.1333,0.1292,0,0,0,0,0]},{"header":{"parameterUnit":"m.s-1","parameterCategory":2,"la1":30.2991,"la2":30.254,"lo1":-89.0895,"lo2":-89.0444,"dy":0.0017,"dx":0.0017,"nx":28,"ny":28,"refTime":"2024-03-14T03:00:00:Z","depth":"4","parameterNumber":3,"parameterNumberName":"V-component_of_CURRENTS"},"data":[0,0,0,0,0,0,0,0,0,0,0,0,0,0,0,0,0,0,0,0,0,0,0,0,0,0,0,0,0,0,0,0,0,0,0,0,0,0,0,0,0,0,0,0,0,0,0,0,0,0,0,0,0,0,0,0,0,0,-0.0029,-0.0029,0,-0.0057,-0.0057,-0.0058,-0.0086,-0.0086,-0.0087,-0.0087,-0.0135,-0.0136,-0.0136,0,0,0,0,0,0,0,0,0,0,0,0,0,-0.0022,-0.0022,-0.0029,-0.0029,-0.003,-0.0057,-0.0057,-0.0058,-0.0086,-0.0086,-0.0087,-0.0087,-0.0134,-0.0135,-0.0136,0,0,0,0,0,0,0,0,0,0,0,0,0,-0.0035,-0.0022,-0.0029,-0.0047,-0.0049,-0.0057,-0.0057,-0.0058,-0.0086,-0.0086,-0.0087,-0.0088,-0.0134,-0.0135,-0.0137,-0.0132,0,0,-0.0141,-0.0141,0,0,0,0,0,0,0,0,-0.0034,-0.0035,-0.0044,-0.0046,-0.0048,-0.0069,-0.0072,-0.0084,-0.0086,-0.0072,-0.0087,-0.0088,-0.0114,-0.0117,-0.012,-0.0134,-0.0136,-0.0141,-0.0142,-0.0142,-0.0142,0,0,0,0,0,0,0,-0.0033,-0.0034,-0.004,-0.0045,-0.0047,-0.0062,-0.0064,-0.0075,-0.0089,-0.0073,-0.0075,-0.0079,-0.0116,-0.0119,-0.0122,-0.0137,-0.0141,-0.0142,-0.0143,-0.0143,-0.0165,-0.0165,0,0,0,0,0,0,-0.0029,-0.0033,-0.0039,-0.0041,-0.0043,-0.0062,-0.0064,-0.0061,-0.0089,-0.0093,-0.0078,-0.008,-0.0116,-0.012,-0.0123,-0.0127,-0.0142,-0.0143,-0.0144,-0.0165,-0.0165,-0.0165,0,0,0,0,0,0,-0.0028,-0.0028,-0.0038,-0.0038,-0.0041,-0.0061,-0.0058,-0.0062,-0.007,-0.0092,-0.0098,-0.0083,-0.0117,-0.0122,-0.0135,-0.0129,-0.0144,-0.0145,-0.0165,-0.0165,-0.0165,-0.0129,0,0,0,0,0,0,-0.0028,-0.0028,-0.0026,-0.0038,-0.004,-0.0039,-0.0057,-0.0062,-0.0071,-0.0074,-0.0098,-0.0103,-0.0118,-0.0133,-0.0136,-0.0131,-0.0146,-0.0166,-0.0165,-0.0165,-0.0131,-0.0128,-0.0125,0,0,0,0,0,-0.0027,-0.0018,-0.0025,-0.0026,-0.0036,-0.0039,-0.0041,-0.0058,-0.0071,-0.0069,-0.0089,-0.0103,-0.0133,-0.0134,-0.0138,-0.0133,-0.0166,-0.0165,-0.0165,-0.0132,-0.0128,-0.0125,0,0,0,0,0,0,-0.0012,-0.0021,-0.0029,-0.0023,-0.003,-0.0044,-0.0046,-0.0057,-0.0071,-0.0076,-0.01,-0.0105,-0.0116,-0.0128,-0.0129,-0.0138,-0.0152,-0.0152,-0.0125,-0.0122,-0.0119,-0.0108,-0.0147,0,0,0,0,0,-0.0008,-0.0005,-0.0016,-0.0011,-0.0014,-0.003,-0.0035,-0.0045,-0.0058,-0.0065,-0.0084,-0.0103,-0.0115,-0.0122,-0.0137,-0.0139,-0.0156,-0.0139,-0.0136,-0.0134,-0.0128,-0.0139,-0.0136,-0.0163,-0.0163,-0.0163,0,0,-0.0,-0.0005,-0.0004,-0.0008,-0.0017,-0.0014,-0.0035,-0.0038,-0.0036,-0.0068,-0.0075,-0.0095,-0.0115,-0.012,-0.0126,-0.0131,-0.0139,-0.0133,-0.0131,-0.0126,-0.0138,-0.0136,-0.0133,-0.0163,-0.0163,-0.0163,0,0,0.0014,0.0011,0.0015,0.0012,0.0003,-0.0003,-0.0004,-0.0018,-0.0025,-0.0033,-0.0056,-0.0071,-0.0093,-0.0102,-0.011,-0.01,-0.0126,-0.0107,-0.0082,-0.0093,-0.009,-0.0088,-0.0122,-0.0123,-0.0103,-0.0103,-0.0103,0,0.002,0.0028,0.0016,0.0019,0.0023,0.0004,0.0013,0.0006,-0.0012,-0.0012,-0.0032,-0.0059,-0.0082,-0.008,-0.0082,-0.0094,-0.0111,-0.0092,-0.0088,-0.0087,-0.0085,-0.012,-0.0122,-0.0102,-0.0102,-0.0102,-0.0102,0,0.0035,0.0042,0.0046,0.0046,0.0049,0.0055,0.0047,0.0047,0.0032,0.0021,0.0013,-0.0018,-0.0033,-0.0044,-0.0063,-0.006,-0.0081,-0.0085,-0.0094,-0.008,-0.0118,-0.0121,-0.0099,-0.01,-0.01,-0.0101,0,0,0.0045,0.0055,0.0055,0.0069,0.0066,0.0075,0.0082,0.0089,0.0096,0.0071,0.0075,0.0046,0.0024,0.0014,-0.0011,-0.0023,-0.0043,-0.0049,-0.005,-0.0079,-0.0084,-0.0105,-0.0111,-0.0044,-0.0044,-0.0044,-0.012,0,0.0059,0.0081,0.008,0.0108,0.0123,0.012,0.0133,0.0136,0.0125,0.0121,0.0094,0.008,0.0049,0.0036,0.0022,-0.0027,-0.0046,-0.0023,-0.0096,-0.0098,-0.0116,-0.0113,-0.0043,-0.0122,-0.0122,-0.0123,-0.0123,0,0.007,0.0088,0.0118,0.0153,0.0159,0.0173,0.02,0.0206,0.0198,0.0186,0.017,0.0138,0.011,0.008,0.0015,0.0031,-0.0023,-0.0061,-0.0065,-0.0096,-0.0124,-0.0136,-0.0128,-0.0128,-0.0128,-0.0127,-0.0127,0,0.0088,0.0116,0.0148,0.0158,0.0188,0.0207,0.0221,0.0226,0.0237,0.022,0.0212,0.0181,0.0147,0.0098,0.0,0.0011,-0.0081,-0.0076,-0.0145,-0.0149,-0.0122,-0.0124,-0.0117,-0.0117,-0.0117,-0.0116,-0.0116,0,0.0108,0.0133,0.0161,0.0181,0.0225,0.0234,0.0271,0.0274,0.0278,0.0284,0.0242,0.0227,0.015,0.0082,0.0012,-0.0087,-0.0076,-0.0142,-0.0163,-0.0109,-0.0108,-0.0126,-0.0126,-0.0119,-0.0119,-0.0118,-0.0118,0,0.0123,0.0139,0.018,0.0221,0.0234,0.0265,0.0302,0.0318,0.0316,0.0319,0.0311,0.0254,0.0163,0.0071,-0.0033,-0.0084,-0.0168,-0.0208,-0.0167,-0.0185,-0.0229,-0.0227,-0.0271,-0.0272,-0.0273,-0.0274,-0.0275,0,0.0131,0.0152,0.0206,0.0225,0.0243,0.0286,0.0307,0.0332,0.0341,0.0331,0.0324,0.0244,0.0191,0.003,-0.0066,-0.0204,-0.0221,-0.0266,-0.0219,-0.0226,-0.0242,-0.0238,-0.0234,-0.0277,-0.0277,-0.0277,-0.0277,0,0.014,0.0158,0.0187,0.0229,0.0258,0.0305,0.0334,0.0356,0.0371,0.0371,0.0335,0.0257,0.0146,0.003,-0.0098,-0.0189,-0.0229,-0.0277,-0.0275,-0.0231,-0.0233,-0.0247,-0.0242,-0.0281,-0.0281,-0.028,-0.028,0,0.013,0.0151,0.0178,0.0226,0.0258,0.0299,0.0334,0.0346,0.0369,0.0365,0.0349,0.0245,0.0187,0.0034,-0.0076,-0.0178,-0.0184,-0.0194,-0.0195,-0.0193,-0.0145,-0.0135,-0.017,0,0,0,0,0,0.0112,0.0134,0.0167,0.0218,0.0254,0.0285,0.0329,0.0359,0.0387,0.0366,0.0366,0.0268,0.0116,0.0048,-0.0055,-0.01,-0.0213,-0.0224,-0.0227,-0.0301,-0.0297,-0.0255,0,0,0,0,0,0,0.0087,0.0114,0.0156,0.02,0.0238,0.0282,0.032,0.0347,0.0344,0.0355,0.0274,0.0248,0.0093,0.0172,-0.0056,-0.0088,-0.0101,-0.0294,-0.0296,-0.0304,-0.03,-0.0297,-0.0252,0,0,0,0,0]}]]